Weather in Dono

Russia / Zabaykalsky Krai     50°53′31″N   118°35′43″E
temp.,
°C
wind,
m/s
gust,
m/s
humid.,
%
clouds,
%
prec.,
mm/h
press.,
hPa
HPBL,
m
14 april, wed
wed1400:00−7w11340 0.0 101210
03:00−8sw113590 0.0 101110
06:00−7ssw2234100 0.0 100928
09:00−2w2657100 0.1 1006672
12:00+2nw695399 0.2 10041643
15:00+3nnw71146100 0.3 10041930
18:00+4nnw593479 0.0 10052245
21:00−2nw225432 0.0 100810
15 april, thu
thu1500:00−3n1157100 0.0 101010
03:00−3nnw1157100 0.0 100910
06:00−4nne1160100 0.0 100810
09:000ese1147100 0.0 1007368
12:00+3ese1237100 0.1 10061774
15:00+1ese2255100 0.6 10061093
18:00+1ene1256100 0.6 1006553
21:000e0156100 0.8 100812
16 april, fri
fri1600:00−2n2259100 0.0 100921
03:00−4nnw2270100 0.0 101135
06:00−5nnw3387100 0.0 101255
09:00−1n3864100 0.1 1013837
12:00+3nne6835100 0.5 10122441
15:00+4n5829100 0.6 10113077
18:00+4nne4628100 0.0 10122284
21:00−1n22405 0.0 101610
17 april, sat
sat1700:00−2nw11410 0.0 101610
03:00−3w11380 0.0 101610
06:00−4sw11395 0.0 101610
09:00+3sw26255 0.0 1014542
12:00+8sw56295 0.0 10101346
15:00+11wsw57285 0.0 10071702
18:00+12w572564 0.0 10061877
21:00+6wsw22395 0.0 100814
18 april, sun
sun1800:00+4ssw22415 0.0 100811
03:00+3ssw22475 0.0 100811
06:00+2sw11515 0.0 100810
09:00+9wnw12345 0.0 1007280
12:00+13nnw232533 0.0 10061785
15:00+15nnw3422100 0.0 10052612
18:00+13nnw332491 0.0 10062164
21:00+8nne22437 0.0 100927